Location: Albany
(35.0170°S, 117.8920°E)
Time: 03:50:47
(UTC+08:00)

Vanguard 1 - Pass Details

Date: 27 January 2021
Orbit: 649 x 3833 km, 34.2° (Epoch: 26 February)

Event Time Altitude Azimuth Distance (km) Brightness Sun altitude
Rises 05:02:20 0° 262° (W) 3,000 - -4.6°
Exits shadow 05:02:24 - 263° (W) 2,975 12.0 -4.6°
Reaches altitude 10° 05:04:37 10° 268° (W) 2,060 11.2 -4.2°
Maximum altitude 05:08:55 51° 344° (NNW) 887 9.6 -3.4°
Drops below altitude 10° 05:14:18 10° 59° (ENE) 2,567 12.7 -2.4°
Sets 05:17:28 0° 63° (ENE) 3,843 13.7 -1.8°
